Location: Newark
(12.4436°N, 0.6167°W)
Time: 03:44:40
(UTC+00:00)

Vanguard 1 - Pass Details

Date: 18 December 2019
Orbit: 650 x 3833 km, 34.2° (Epoch: 27 January)

Event Time Altitude Azimuth Distance (km) Brightness Sun altitude
Rises 00:48:29 0° 245° (WSW) 5,645 - -73.9°
Reaches altitude 10° 00:51:34 10° 247° (WSW) 4,979 - -73.4°
Maximum altitude 01:07:38 71° 330° (NNW) 3,495 - -70.3°
Exits shadow 01:22:23 30° 46° (NE) 5,356 13.6 -67.3°
Drops below altitude 10° 01:31:25 10° 53° (NE) 6,904 14.4 -65.4°
Sets 01:36:45 0° 56° (NE) 7,815 14.8 -64.3°
